Location: Baili�vre
(50.0696°N, 4.2409°E)
Time: 07:14:13
(UTC+00:00)

Cosmos 2233 Rocket - Pass Details

Date: 08 August 2020
Orbit: 952 x 992 km, 82.9° (Epoch: 26 September)

Event Time Altitude Azimuth Distance (km) Brightness Sun altitude
Exits shadow 23:14:24 50° 183° (S) 1,247 4.1 -23.7°
Maximum altitude 23:16:14 86° 98° (E) 1,001 3.9 -23.8°
Drops below altitude 10° 23:22:37 10° 10° (N) 2,767 7.4 -23.9°
Sets 23:25:09 0° 11° (N) 3,719 8.3 -23.9°
